DW1053 Weather Reports


time (UTC)temp
F
wind
direction
speed
knots
gust
knots
rain 1hr
in
rain 24hr
in
rain mn
in
humidity
%
barometer
mb
20260906230205 70 103 0.0 0.0 0.00 0.00 0.00 58 1017.7
20260906220228 72 96 0.0 0.9 0.00 0.00 0.00 55 1017.8
20260906210207 72 121 0.0 0.0 0.00 0.00 0.00 54 1018.0
20260906200208 75 134 0.0 0.0 0.00 0.00 0.00 51 1018.2
20260906190231 77 122 0.0 1.7 0.00 0.00 0.00 44 1018.2
20260906180208 78 114 0.0 0.9 0.00 0.00 0.00 45 1018.1
20260906170207 81 113 0.0 0.9 0.00 0.00 0.00 39 1018.2
20260906150208 82 132 0.0 0.9 0.00 0.00 0.00 34 1018.5
20260906140206 82 130 0.0 1.7 0.00 0.00 0.00 34 1018.8
20260906130208 84 117 0.0 0.9 0.00 0.00 0.00 34 1019.4
20260906120218 83 97 0.0 3.5 0.00 0.00 0.00 34 1020.0
20260906110209 80 122 0.0 4.3 0.00 0.00 0.00 35 1020.4
20260906100231 76 326 0.0 4.3 0.00 0.00 0.00 50 1020.9
20260906090205 69 346 0.0 0.9 0.00 0.00 0.00 66 1021.5
20260906080208 63 91 0.0 0.9 0.00 0.00 0.00 80 1021.8
20260906070207 60 335 0.0 0.0 0.00 0.00 0.00 89 1021.6
20260906060206 58 100 0.0 0.0 0.00 0.00 0.00 90 1021.6
20260906050207 58 100 0.0 0.0 0.00 0.00 0.00 90 1021.2
20260906040206 58 100 0.0 0.0 0.00 0.00 0.00 90 1020.9
20260906020206 60 100 0.0 0.0 0.00 0.00 0.00 89 1021.2
20260906000208 63 100 0.0 0.0 0.00 0.00 0.00 87 1021.1